Time,TemperatureF,DewpointF,PressureIn,WindDirection,WindDirectionDegrees,WindSpeedMPH,WindSpeedGustMPH,Humidity,HourlyPrecipIn,Conditions,Clouds,dailyrainin,SoftwareType,DateUTC
2013-02-04 00:00:00,19.8,14.1,29.77,West,274,0.0,0.0,78,0.00,,CLR,0.00,VWS V14.01,2013-02-04 05:00:00,
2013-02-04 00:01:00,19.8,14.1,29.76,West,274,0.0,0.0,78,0.00,,CLR,0.00,VWS V14.01,2013-02-04 05:01:00,
2013-02-04 00:03:00,19.8,14.1,29.77,West,274,0.0,0.0,78,0.00,,BKN070,0.00,VWS V14.01,2013-02-04 05:03:00,
2013-02-04 00:08:00,19.8,14.1,29.77,West,274,0.0,0.0,78,0.00,,BKN070,0.00,VWS V14.01,2013-02-04 05:08:00,
2013-02-04 00:13:00,19.7,14.0,29.77,West,274,0.0,0.0,78,0.00,,BKN070,0.00,VWS V14.01,2013-02-04 05:13:00,
2013-02-04 00:18:00,19.9,14.2,29.76,West,274,0.0,0.0,78,0.00,,BKN070,0.00,VWS V14.01,2013-02-04 05:18:00,
2013-02-04 00:23:00,19.9,14.2,29.76,West,276,0.0,1.4,78,0.00,,BKN070,0.00,VWS V14.01,2013-02-04 05:23:00,
2013-02-04 00:28:00,20.1,14.4,29.76,West,278,0.0,0.0,78,0.00,,BKN070,0.00,VWS V14.01,2013-02-04 05:28:00,
2013-02-04 00:33:00,19.9,14.2,29.76,West,278,0.0,0.0,78,0.00,,BKN070,0.00,VWS V14.01,2013-02-04 05:33:00,
2013-02-04 00:38:00,19.8,14.1,29.76,West,278,0.0,0.0,78,0.00,,BKN070,0.00,VWS V14.01,2013-02-04 05:38:00,
2013-02-04 00:43:00,19.6,14.2,29.76,West,279,0.0,0.0,79,0.00,,BKN070,0.00,VWS V14.01,2013-02-04 05:43:00,
2013-02-04 00:48:00,19.4,14.0,29.76,West,279,0.0,0.0,79,0.00,,BKN070,0.00,VWS V14.01,2013-02-04 05:48:00,
2013-02-04 00:53:00,19.3,14.1,29.76,West,279,0.0,1.4,80,0.00,,BKN070,0.00,VWS V14.01,2013-02-04 05:53:00,
2013-02-04 00:58:00,19.5,14.6,29.76,West,279,0.0,0.0,81,0.00,,BKN070,0.00,VWS V14.01,2013-02-04 05:58:00,
2013-02-04 01:03:00,19.4,14.2,29.75,West,279,0.0,0.0,80,0.00,,OVC075,0.00,VWS V14.01,2013-02-04 06:03:00,
2013-02-04 01:08:00,19.4,14.5,29.76,West,279,0.0,0.0,81,0.00,,OVC075,0.00,VWS V14.01,2013-02-04 06:08:00,
2013-02-04 01:13:00,19.3,14.4,29.76,West,279,0.0,2.9,81,0.00,,OVC075,0.00,VWS V14.01,2013-02-04 06:13:00,
2013-02-04 01:18:00,19.3,14.4,29.76,West,279,0.0,0.0,81,0.00,,OVC075,0.00,VWS V14.01,2013-02-04 06:18:00,
2013-02-04 01:23:00,19.1,14.5,29.75,West,279,0.0,0.0,82,0.00,,OVC075,0.00,VWS V14.01,2013-02-04 06:23:00,
2013-02-04 01:28:00,19.0,14.4,29.75,West,279,0.0,0.0,82,0.00,,OVC075,0.00,VWS V14.01,2013-02-04 06:28:00,
2013-02-04 01:33:00,19.0,14.4,29.75,West,279,0.0,0.0,82,0.00,,OVC075,0.00,VWS V14.01,2013-02-04 06:33:00,
2013-02-04 01:38:00,18.8,14.2,29.75,West,279,0.0,0.0,82,0.00,,OVC075,0.00,VWS V14.01,2013-02-04 06:38:00,
2013-02-04 01:43:00,18.8,14.2,29.76,West,279,0.0,0.0,82,0.00,,OVC075,0.00,VWS V14.01,2013-02-04 06:43:00,
2013-02-04 01:48:00,19.0,14.4,29.75,West,279,0.0,0.0,82,0.00,,OVC075,0.00,VWS V14.01,2013-02-04 06:48:00,
2013-02-04 01:53:00,19.0,14.4,29.76,West,279,0.0,0.0,82,0.00,,OVC075,0.00,VWS V14.01,2013-02-04 06:53:00,
2013-02-04 01:58:00,19.0,14.4,29.75,West,279,0.0,0.0,82,0.00,,OVC075,0.00,VWS V14.01,2013-02-04 06:58:00,
2013-02-04 02:03:00,19.0,14.4,29.75,West,279,0.0,0.0,82,0.00,,OVC050,0.00,VWS V14.01,2013-02-04 07:03:00,
2013-02-04 02:08:00,19.1,14.5,29.76,West,279,0.0,0.0,82,0.00,,OVC050,0.00,VWS V14.01,2013-02-04 07:08:00,
2013-02-04 02:13:00,19.0,14.4,29.75,West,279,0.0,0.0,82,0.00,,OVC050,0.00,VWS V14.01,2013-02-04 07:13:00,
2013-02-04 02:18:00,19.0,14.4,29.75,West,279,0.0,0.0,82,0.00,,OVC050,0.00,VWS V14.01,2013-02-04 07:18:00,
2013-02-04 02:23:00,19.0,14.7,29.75,WNW,289,0.0,0.0,83,0.00,,OVC050,0.00,VWS V14.01,2013-02-04 07:23:00,
2013-02-04 02:28:00,19.0,14.7,29.75,WNW,289,0.0,0.0,83,0.00,,OVC050,0.00,VWS V14.01,2013-02-04 07:28:00,
2013-02-04 02:33:00,19.0,14.7,29.75,WNW,289,0.0,0.0,83,0.00,,OVC050,0.00,VWS V14.01,2013-02-04 07:33:00,
2013-02-04 02:38:00,19.0,14.4,29.75,WNW,289,0.0,0.0,82,0.00,,OVC050,0.00,VWS V14.01,2013-02-04 07:38:00,
2013-02-04 02:43:00,19.0,14.7,29.75,WNW,289,0.0,0.0,83,0.00,,OVC050,0.00,VWS V14.01,2013-02-04 07:43:00,
2013-02-04 02:48:00,19.1,14.8,29.75,WNW,289,0.0,0.0,83,0.00,,OVC050,0.00,VWS V14.01,2013-02-04 07:48:00,
2013-02-04 02:53:00,19.1,14.5,29.75,WNW,289,0.0,0.0,82,0.00,,OVC050,0.00,VWS V14.01,2013-02-04 07:53:00,
2013-02-04 02:58:00,19.1,14.8,29.75,WNW,289,0.0,0.0,83,0.00,,OVC050,0.00,VWS V14.01,2013-02-04 07:58:00,
2013-02-04 03:03:00,19.3,15.0,29.76,WNW,289,0.0,1.4,83,0.00,,OVC120,0.00,VWS V14.01,2013-02-04 08:03:00,
2013-02-04 03:08:00,19.3,15.3,29.75,WNW,289,0.0,0.0,84,0.00,,OVC120,0.00,VWS V14.01,2013-02-04 08:08:00,
2013-02-04 03:13:00,19.4,15.4,29.75,WNW,289,0.0,0.0,84,0.00,,OVC120,0.00,VWS V14.01,2013-02-04 08:13:00,
2013-02-04 03:18:00,19.6,15.6,29.75,WNW,289,0.0,0.0,84,0.00,,OVC120,0.00,VWS V14.01,2013-02-04 08:18:00,
2013-02-04 03:23:00,19.8,15.5,29.75,WNW,289,0.0,0.0,83,0.00,,OVC120,0.00,VWS V14.01,2013-02-04 08:23:00,
2013-02-04 03:28:00,19.9,15.6,29.75,WNW,289,0.0,0.0,83,0.00,,OVC120,0.00,VWS V14.01,2013-02-04 08:28:00,
2013-02-04 03:33:00,20.1,15.8,29.76,WNW,289,0.0,1.4,83,0.00,,OVC120,0.00,VWS V14.01,2013-02-04 08:33:00,
2013-02-04 03:38:00,20.2,15.9,29.75,WNW,289,0.0,0.0,83,0.00,,OVC120,0.00,VWS V14.01,2013-02-04 08:38:00,
2013-02-04 03:43:00,20.2,15.9,29.75,WNW,289,0.0,0.0,83,0.00,,OVC120,0.00,VWS V14.01,2013-02-04 08:43:00,
2013-02-04 03:48:00,20.1,15.8,29.75,WNW,289,0.0,0.0,83,0.00,,OVC120,0.00,VWS V14.01,2013-02-04 08:48:00,
2013-02-04 03:53:00,19.8,15.8,29.76,WNW,289,0.0,0.0,84,0.00,,OVC120,0.00,VWS V14.01,2013-02-04 08:53:00,
2013-02-04 03:58:00,19.6,15.6,29.76,West,268,0.0,0.0,84,0.00,,OVC120,0.00,VWS V14.01,2013-02-04 08:58:00,
2013-02-04 04:03:00,19.6,15.6,29.76,West,268,0.0,1.4,84,0.00,,FEW110,0.00,VWS V14.01,2013-02-04 09:03:00,
2013-02-04 04:08:00,19.8,16.0,29.76,WSW,242,0.0,0.0,85,0.00,,FEW110,0.00,VWS V14.01,2013-02-04 09:08:00,
2013-02-04 04:13:00,19.9,16.4,29.76,WSW,252,0.0,0.0,86,0.00,,FEW110,0.00,VWS V14.01,2013-02-04 09:13:00,
2013-02-04 04:18:00,20.1,16.3,29.76,NW,313,0.0,2.9,85,0.00,,FEW110,0.00,VWS V14.01,2013-02-04 09:18:00,
2013-02-04 04:23:00,20.3,16.8,29.77,NW,312,0.0,1.4,86,0.00,,FEW110,0.00,VWS V14.01,2013-02-04 09:23:00,
2013-02-04 04:28:00,20.6,17.4,29.78,NNW,328,0.0,7.1,87,0.00,,FEW110,0.00,VWS V14.01,2013-02-04 09:28:00,
2013-02-04 04:33:00,20.9,17.6,29.77,WNW,299,2.9,2.9,87,0.00,,FEW110,0.00,VWS V14.01,2013-02-04 09:33:00,
2013-02-04 04:38:00,21.1,17.8,29.78,West,270,0.0,2.9,87,0.00,,FEW110,0.00,VWS V14.01,2013-02-04 09:38:00,
2013-02-04 04:43:00,21.2,17.9,29.78,NW,318,0.0,0.0,87,0.00,,FEW110,0.00,VWS V14.01,2013-02-04 09:43:00,
2013-02-04 04:48:00,21.4,18.1,29.78,WSW,246,0.0,2.9,87,0.00,,FEW110,0.00,VWS V14.01,2013-02-04 09:48:00,
2013-02-04 04:53:00,21.4,18.1,29.78,NNW,344,0.0,5.7,87,0.00,,FEW110,0.00,VWS V14.01,2013-02-04 09:53:00,
2013-02-04 04:58:00,21.4,18.1,29.78,WNW,296,2.9,5.7,87,0.00,,FEW110,0.00,VWS V14.01,2013-02-04 09:58:00,
2013-02-04 05:03:00,21.6,18.3,29.78,North,359,0.0,5.7,87,0.00,,BKN065,0.00,VWS V14.01,2013-02-04 10:03:00,
2013-02-04 05:08:00,21.4,17.9,29.78,North,356,0.0,5.7,86,0.00,,BKN065,0.00,VWS V14.01,2013-02-04 10:08:00,
2013-02-04 05:13:00,21.4,17.9,29.79,NW,324,7.1,7.1,86,0.00,,BKN065,0.00,VWS V14.01,2013-02-04 10:13:00,
2013-02-04 05:18:00,21.4,17.9,29.78,NNW,330,1.4,2.9,86,0.00,,BKN065,0.00,VWS V14.01,2013-02-04 10:18:00,
2013-02-04 05:23:00,21.4,17.9,29.79,West,261,0.0,4.3,86,0.00,,BKN065,0.00,VWS V14.01,2013-02-04 10:23:00,
2013-02-04 05:28:00,21.4,17.6,29.79,NNW,333,0.0,8.6,85,0.00,,BKN065,0.00,VWS V14.01,2013-02-04 10:28:00,
2013-02-04 05:33:00,21.4,17.3,29.79,NW,308,8.6,8.6,84,0.00,,BKN065,0.00,VWS V14.01,2013-02-04 10:33:00,
2013-02-04 05:38:00,21.4,17.6,29.80,East,85,0.0,1.4,85,0.00,,BKN065,0.00,VWS V14.01,2013-02-04 10:38:00,
2013-02-04 05:43:00,21.2,17.4,29.80,NW,309,0.0,2.9,85,0.00,,BKN065,0.00,VWS V14.01,2013-02-04 10:43:00,
2013-02-04 05:48:00,21.1,17.3,29.80,WNW,283,0.0,0.0,85,0.00,,BKN065,0.00,VWS V14.01,2013-02-04 10:48:00,
2013-02-04 05:53:00,21.0,17.2,29.80,West,281,0.0,2.9,85,0.00,,BKN065,0.00,VWS V14.01,2013-02-04 10:53:00,
2013-02-04 05:58:00,20.9,17.1,29.80,NNW,340,0.0,0.0,85,0.00,,BKN065,0.00,VWS V14.01,2013-02-04 10:58:00,
2013-02-04 06:03:00,20.5,16.7,29.81,North,0,0.0,1.4,85,0.00,,CLR,0.00,VWS V14.01,2013-02-04 11:03:00,
2013-02-04 06:08:00,20.3,16.5,29.81,NNW,330,0.0,0.0,85,0.00,,CLR,0.00,VWS V14.01,2013-02-04 11:08:00,
2013-02-04 06:13:00,20.1,16.6,29.81,NNW,343,0.0,2.9,86,0.00,,CLR,0.00,VWS V14.01,2013-02-04 11:13:00,
2013-02-04 06:18:00,20.1,16.6,29.82,NW,314,0.0,1.4,86,0.00,,CLR,0.00,VWS V14.01,2013-02-04 11:18:00,
2013-02-04 06:23:00,20.1,16.6,29.82,WNW,303,4.3,4.3,86,0.00,,CLR,0.00,VWS V14.01,2013-02-04 11:23:00,
2013-02-04 06:28:00,20.1,16.6,29.82,North,355,0.0,0.0,86,0.00,,CLR,0.00,VWS V14.01,2013-02-04 11:28:00,
2013-02-04 06:33:00,20.1,16.6,29.82,North,9,1.4,7.1,86,0.00,,CLR,0.00,VWS V14.01,2013-02-04 11:33:00,
2013-02-04 06:38:00,20.1,16.3,29.82,WNW,290,0.0,5.7,85,0.00,,CLR,0.00,VWS V14.01,2013-02-04 11:38:00,
2013-02-04 06:43:00,20.2,16.7,29.82,North,7,0.0,7.1,86,0.00,,CLR,0.00,VWS V14.01,2013-02-04 11:43:00,
2013-02-04 06:48:00,20.1,16.3,29.82,NW,316,0.0,0.0,85,0.00,,CLR,0.00,VWS V14.01,2013-02-04 11:48:00,
2013-02-04 06:53:00,20.0,16.2,29.83,NNE,28,0.0,5.7,85,0.00,,CLR,0.00,VWS V14.01,2013-02-04 11:53:00,
2013-02-04 06:58:00,20.0,16.2,29.83,WNW,299,0.0,0.0,85,0.00,,CLR,0.00,VWS V14.01,2013-02-04 11:58:00,
2013-02-04 07:03:00,20.0,16.2,29.83,NNW,344,2.9,7.1,85,0.00,,SCT080,0.00,VWS V14.01,2013-02-04 12:03:00,
2013-02-04 07:08:00,20.0,16.2,29.83,NNW,330,0.0,7.1,85,0.00,,SCT080,0.00,VWS V14.01,2013-02-04 12:08:00,
2013-02-04 07:13:00,20.1,15.8,29.84,WNW,303,0.0,0.0,83,0.00,,SCT080,0.00,VWS V14.01,2013-02-04 12:13:00,
2013-02-04 07:18:00,20.1,16.0,29.84,NNW,335,0.0,7.1,84,0.00,,SCT080,0.00,VWS V14.01,2013-02-04 12:18:00,
2013-02-04 07:23:00,20.3,16.0,29.84,NW,324,0.0,4.3,83,0.00,,SCT080,0.00,VWS V14.01,2013-02-04 12:23:00,
2013-02-04 07:28:00,20.3,16.0,29.84,NW,311,7.1,7.1,83,0.00,,SCT080,0.00,VWS V14.01,2013-02-04 12:28:00,
2013-02-04 07:33:00,20.5,16.2,29.84,WSW,240,0.0,1.4,83,0.00,,SCT080,0.00,VWS V14.01,2013-02-04 12:33:00,
2013-02-04 07:38:00,20.6,16.0,29.84,SW,236,0.0,4.3,82,0.00,,SCT080,0.00,VWS V14.01,2013-02-04 12:38:00,
2013-02-04 07:43:00,20.7,16.1,29.84,North,357,0.0,10.0,82,0.00,,SCT080,0.00,VWS V14.01,2013-02-04 12:43:00,
2013-02-04 07:48:00,20.8,15.9,29.84,NW,314,2.9,4.3,81,0.00,,SCT080,0.00,VWS V14.01,2013-02-04 12:48:00,
2013-02-04 07:53:00,21.0,16.1,29.84,West,279,0.0,1.4,81,0.00,,SCT080,0.00,VWS V14.01,2013-02-04 12:53:00,
2013-02-04 07:58:00,21.1,15.6,29.84,NW,305,0.0,7.1,79,0.00,,SCT080,0.00,VWS V14.01,2013-02-04 12:58:00,
2013-02-04 08:03:00,21.4,15.9,29.85,NW,308,1.4,4.3,79,0.00,,FEW040,0.00,VWS V14.01,2013-02-04 13:03:00,
2013-02-04 08:08:00,21.4,15.6,29.84,NNW,338,0.0,2.9,78,0.00,,FEW040,0.00,VWS V14.01,2013-02-04 13:08:00,
2013-02-04 08:13:00,21.7,15.3,29.85,NW,309,0.0,2.9,76,0.00,,FEW040,0.00,VWS V14.01,2013-02-04 13:13:00,
2013-02-04 08:18:00,21.9,15.2,29.85,WSW,238,0.0,1.4,75,0.00,,FEW040,0.00,VWS V14.01,2013-02-04 13:18:00,
2013-02-04 08:23:00,22.1,14.8,29.85,WSW,258,0.0,5.7,73,0.00,,FEW040,0.00,VWS V14.01,2013-02-04 13:23:00,
2013-02-04 08:28:00,22.3,14.7,29.85,WNW,284,4.3,8.6,72,0.00,,FEW040,0.00,VWS V14.01,2013-02-04 13:28:00,
2013-02-04 08:33:00,22.3,14.0,29.85,NW,314,0.0,5.7,70,0.00,,FEW040,0.00,VWS V14.01,2013-02-04 13:33:00,
2013-02-04 08:38:00,22.5,13.9,29.85,WNW,299,0.0,7.1,69,0.00,,FEW040,0.00,VWS V14.01,2013-02-04 13:38:00,
2013-02-04 08:43:00,22.7,13.7,29.86,NNW,343,0.0,12.9,68,0.00,,FEW040,0.00,VWS V14.01,2013-02-04 13:43:00,
2013-02-04 08:48:00,22.8,13.5,29.87,West,262,5.7,14.3,67,0.00,,FEW040,0.00,VWS V14.01,2013-02-04 13:48:00,
2013-02-04 08:53:00,22.9,13.3,29.87,NW,307,2.9,5.7,66,0.00,,FEW040,0.00,VWS V14.01,2013-02-04 13:53:00,
2013-02-04 08:58:00,23.1,13.4,29.86,NNE,31,4.3,8.6,66,0.00,,FEW040,0.00,VWS V14.01,2013-02-04 13:58:00,
2013-02-04 09:03:00,23.3,13.3,29.86,NNE,26,5.7,18.6,65,0.00,,CLR,0.00,VWS V14.01,2013-02-04 14:03:00,
2013-02-04 09:08:00,23.2,12.8,29.86,West,264,1.4,2.9,64,0.00,,CLR,0.00,VWS V14.01,2013-02-04 14:08:00,
2013-02-04 09:13:00,23.4,13.0,29.86,NW,317,7.1,7.1,64,0.00,,CLR,0.00,VWS V14.01,2013-02-04 14:13:00,
2013-02-04 09:18:00,23.7,13.0,29.86,WSW,257,1.4,17.2,63,0.00,,CLR,0.00,VWS V14.01,2013-02-04 14:18:00,
2013-02-04 09:23:00,23.8,12.7,29.86,WSW,250,7.1,18.6,62,0.00,,CLR,0.00,VWS V14.01,2013-02-04 14:23:00,
2013-02-04 09:28:00,23.6,12.1,29.87,NW,319,7.1,12.9,61,0.00,,CLR,0.00,VWS V14.01,2013-02-04 14:28:00,
2013-02-04 09:33:00,24.1,13.0,29.87,NW,322,0.0,1.4,62,0.00,,CLR,0.00,VWS V14.01,2013-02-04 14:33:00,
2013-02-04 09:38:00,24.3,12.8,29.87,NW,321,11.4,12.9,61,0.00,,CLR,0.00,VWS V14.01,2013-02-04 14:38:00,
2013-02-04 09:43:00,24.5,13.0,29.86,WNW,301,0.0,8.6,61,0.00,,CLR,0.00,VWS V14.01,2013-02-04 14:43:00,
2013-02-04 09:48:00,24.6,13.1,29.87,WSW,246,2.9,2.9,61,0.00,,CLR,0.00,VWS V14.01,2013-02-04 14:48:00,
2013-02-04 09:53:00,24.8,12.5,29.87,West,261,0.0,2.9,59,0.00,,CLR,0.00,VWS V14.01,2013-02-04 14:53:00,
2013-02-04 09:58:00,25.1,12.4,29.87,SW,221,1.4,7.1,58,0.00,,CLR,0.00,VWS V14.01,2013-02-04 14:58:00,
2013-02-04 10:03:00,25.0,12.3,29.87,NW,316,5.7,11.4,58,0.00,,SCT040,0.00,VWS V14.01,2013-02-04 15:03:00,
2013-02-04 10:08:00,24.6,11.6,29.87,WNW,293,0.0,8.6,57,0.00,,SCT040,0.00,VWS V14.01,2013-02-04 15:08:00,
2013-02-04 10:13:00,24.6,11.6,29.87,West,259,0.0,15.7,57,0.00,,SCT040,0.00,VWS V14.01,2013-02-04 15:13:00,
2013-02-04 10:18:00,24.8,11.7,29.88,NE,39,1.4,5.7,57,0.00,,SCT040,0.00,VWS V14.01,2013-02-04 15:18:00,
2013-02-04 10:23:00,24.9,11.4,29.87,WNW,303,4.3,10.0,56,0.00,,SCT040,0.00,VWS V14.01,2013-02-04 15:23:00,
2013-02-04 10:28:00,24.6,11.2,29.88,SW,217,0.0,11.4,56,0.00,,SCT040,0.00,VWS V14.01,2013-02-04 15:28:00,
2013-02-04 10:33:00,24.5,10.2,29.88,NW,314,4.3,4.3,54,0.00,,SCT040,0.00,VWS V14.01,2013-02-04 15:33:00,
2013-02-04 10:38:00,24.5,11.1,29.87,NW,312,0.0,2.9,56,0.00,,SCT040,0.00,VWS V14.01,2013-02-04 15:38:00,
2013-02-04 10:43:00,24.6,11.2,29.88,WSW,245,1.4,8.6,56,0.00,,SCT040,0.00,VWS V14.01,2013-02-04 15:43:00,
2013-02-04 10:48:00,24.8,10.9,29.88,West,261,8.6,11.4,55,0.00,,SCT040,0.00,VWS V14.01,2013-02-04 15:48:00,
2013-02-04 10:53:00,24.8,10.9,29.87,West,268,0.0,17.2,55,0.00,,SCT040,0.00,VWS V14.01,2013-02-04 15:53:00,
2013-02-04 10:58:00,25.1,11.6,29.88,West,270,2.9,8.6,56,0.00,,SCT040,0.00,VWS V14.01,2013-02-04 15:58:00,
2013-02-04 11:03:00,25.2,10.5,29.88,West,278,0.0,2.9,53,0.00,,BKN040,0.00,VWS V14.01,2013-02-04 16:03:00,
2013-02-04 11:08:00,25.4,10.7,29.87,NW,311,11.4,14.3,53,0.00,,BKN040,0.00,VWS V14.01,2013-02-04 16:08:00,
2013-02-04 11:13:00,26.0,11.2,29.87,NNW,343,2.9,5.7,53,0.00,,BKN040,0.00,VWS V14.01,2013-02-04 16:13:00,
2013-02-04 11:18:00,26.3,11.1,29.87,WSW,242,0.0,30.0,52,0.00,,BKN040,0.00,VWS V14.01,2013-02-04 16:18:00,
2013-02-04 11:23:00,26.6,11.8,29.87,WNW,287,4.3,7.1,53,0.00,,BKN040,0.00,VWS V14.01,2013-02-04 16:23:00,
2013-02-04 11:28:00,26.7,11.0,29.87,West,273,4.3,11.4,51,0.00,,BKN040,0.00,VWS V14.01,2013-02-04 16:28:00,
2013-02-04 11:33:00,26.4,10.7,29.86,SSW,213,1.4,15.7,51,0.00,,BKN040,0.00,VWS V14.01,2013-02-04 16:33:00,
2013-02-04 11:38:00,27.0,11.3,29.86,North,2,1.4,2.9,51,0.00,,BKN040,0.00,VWS V14.01,2013-02-04 16:38:00,
2013-02-04 11:43:00,27.6,11.9,29.86,WNW,286,2.9,5.7,51,0.00,,BKN040,0.00,VWS V14.01,2013-02-04 16:43:00,
2013-02-04 11:48:00,27.3,10.7,29.85,SW,214,5.7,11.4,49,0.00,,BKN040,0.00,VWS V14.01,2013-02-04 16:48:00,
2013-02-04 11:53:00,27.3,10.7,29.85,NNW,332,5.7,28.6,49,0.00,,BKN040,0.00,VWS V14.01,2013-02-04 16:53:00,
2013-02-04 11:58:00,27.6,10.5,29.85,SSW,208,0.0,5.7,48,0.00,,BKN040,0.00,VWS V14.01,2013-02-04 16:58:00,
2013-02-04 12:03:00,27.9,11.7,29.85,WNW,295,2.9,12.9,50,0.00,,SCT055,0.00,VWS V14.01,2013-02-04 17:03:00,
2013-02-04 12:08:00,28.0,11.3,29.85,NE,42,2.9,8.6,49,0.00,,SCT055,0.00,VWS V14.01,2013-02-04 17:08:00,
2013-02-04 12:13:00,28.3,12.1,29.85,NNW,327,0.0,12.9,50,0.00,,SCT055,0.00,VWS V14.01,2013-02-04 17:13:00,
2013-02-04 12:18:00,28.5,11.8,29.85,WSW,250,1.4,4.3,49,0.00,,SCT055,0.00,VWS V14.01,2013-02-04 17:18:00,
2013-02-04 12:23:00,27.8,10.7,29.85,NW,311,5.7,7.1,48,0.00,,SCT055,0.00,VWS V14.01,2013-02-04 17:23:00,
2013-02-04 12:28:00,27.6,10.5,29.85,NW,304,17.2,17.2,48,0.00,,SCT055,0.00,VWS V14.01,2013-02-04 17:28:00,
2013-02-04 12:33:00,27.0,9.9,29.85,South,180,4.3,14.3,48,0.00,,SCT055,0.00,VWS V14.01,2013-02-04 17:33:00,
2013-02-04 12:38:00,27.3,10.2,29.85,NW,326,4.3,11.4,48,0.00,,SCT055,0.00,VWS V14.01,2013-02-04 17:38:00,
2013-02-04 12:43:00,27.0,9.5,29.85,SW,229,10.0,15.7,47,0.00,,SCT055,0.00,VWS V14.01,2013-02-04 17:43:00,
2013-02-04 12:48:00,26.4,9.4,29.85,SW,219,11.4,18.6,48,0.00,,SCT055,0.00,VWS V14.01,2013-02-04 17:48:00,
2013-02-04 12:53:00,26.2,9.2,29.85,SW,231,7.1,8.6,48,0.00,,SCT055,0.00,VWS V14.01,2013-02-04 17:53:00,
2013-02-04 12:58:00,26.2,9.7,29.85,NNW,339,10.0,12.9,49,0.00,,SCT055,0.00,VWS V14.01,2013-02-04 17:58:00,
2013-02-04 13:03:00,26.4,9.8,29.85,West,268,4.3,7.1,49,0.00,,FEW055,0.00,VWS V14.01,2013-02-04 18:03:00,
2013-02-04 13:07:00,26.2,9.2,29.85,SW,234,10.0,11.4,48,0.00,,FEW055,0.00,VWS V14.01,2013-02-04 18:07:00,
2013-02-04 13:12:00,26.0,8.6,29.84,WSW,248,0.0,11.4,47,0.00,,FEW055,0.00,VWS V14.01,2013-02-04 18:12:00,
2013-02-04 13:17:00,26.6,9.6,29.84,WSW,241,5.7,18.6,48,0.00,,FEW055,0.00,VWS V14.01,2013-02-04 18:17:00,
2013-02-04 13:22:00,27.1,10.0,29.84,WNW,287,0.0,5.7,48,0.00,,FEW055,0.00,VWS V14.01,2013-02-04 18:22:00,
2013-02-04 13:27:00,28.1,10.5,29.84,South,184,4.3,11.4,47,0.00,,FEW055,0.00,VWS V14.01,2013-02-04 18:27:00,
2013-02-04 13:32:00,28.4,10.8,29.85,WSW,245,11.4,21.4,47,0.00,,FEW055,0.00,VWS V14.01,2013-02-04 18:32:00,
2013-02-04 13:37:00,28.1,10.5,29.84,NNW,333,0.0,5.7,47,0.00,,FEW055,0.00,VWS V14.01,2013-02-04 18:37:00,
2013-02-04 13:42:00,27.5,9.4,29.84,WNW,300,5.7,15.7,46,0.00,,FEW055,0.00,VWS V14.01,2013-02-04 18:42:00,
2013-02-04 13:47:00,27.1,9.6,29.84,West,270,0.0,5.7,47,0.00,,FEW055,0.00,VWS V14.01,2013-02-04 18:47:00,
2013-02-04 13:52:00,26.9,9.4,29.84,SW,230,7.1,10.0,47,0.00,,FEW055,0.00,VWS V14.01,2013-02-04 18:52:00,
2013-02-04 13:57:00,27.1,9.6,29.85,NNW,329,4.3,7.1,47,0.00,,FEW055,0.00,VWS V14.01,2013-02-04 18:57:00,
2013-02-04 14:02:00,27.1,9.1,29.85,WSW,237,4.3,17.2,46,0.00,,BKN060,0.00,VWS V14.01,2013-02-04 19:02:00,
2013-02-04 14:07:00,27.2,9.6,29.84,WNW,282,1.4,11.4,47,0.00,,BKN060,0.00,VWS V14.01,2013-02-04 19:07:00,
2013-02-04 14:12:00,27.9,9.3,29.85,WNW,284,7.1,11.4,45,0.00,,BKN060,0.00,VWS V14.01,2013-02-04 19:12:00,
2013-02-04 14:17:00,27.8,8.7,29.85,West,271,22.9,22.9,44,0.00,,BKN060,0.00,VWS V14.01,2013-02-04 19:17:00,
2013-02-04 14:22:00,27.7,8.6,29.85,WNW,285,12.9,14.3,44,0.00,,BKN060,0.00,VWS V14.01,2013-02-04 19:22:00,
2013-02-04 14:27:00,27.7,8.6,29.85,WSW,244,5.7,10.0,44,0.00,,BKN060,0.00,VWS V14.01,2013-02-04 19:27:00,
2013-02-04 14:32:00,27.5,7.9,29.85,NNW,343,1.4,11.4,43,0.00,,BKN060,0.00,VWS V14.01,2013-02-04 19:32:00,
2013-02-04 14:37:00,27.4,8.4,29.85,NNW,330,2.9,12.9,44,0.00,,BKN060,0.00,VWS V14.01,2013-02-04 19:37:00,
2013-02-04 14:42:00,27.1,8.6,29.84,NNW,348,1.4,15.7,45,0.00,,BKN060,0.00,VWS V14.01,2013-02-04 19:42:00,
2013-02-04 14:47:00,26.8,8.3,29.85,NW,314,0.0,12.9,45,0.00,,BKN060,0.00,VWS V14.01,2013-02-04 19:47:00,
2013-02-04 14:52:00,27.2,8.7,29.85,North,359,0.0,5.7,45,0.00,,BKN060,0.00,VWS V14.01,2013-02-04 19:52:00,
2013-02-04 14:57:00,27.9,9.3,29.85,SW,214,1.4,8.6,45,0.00,,BKN060,0.00,VWS V14.01,2013-02-04 19:57:00,
2013-02-04 15:02:00,27.6,8.6,29.84,WNW,287,0.0,7.1,44,0.00,,FEW060,0.00,VWS V14.01,2013-02-04 20:02:00,
2013-02-04 15:07:00,27.8,9.2,29.84,WSW,257,4.3,21.4,45,0.00,,FEW060,0.00,VWS V14.01,2013-02-04 20:07:00,
2013-02-04 15:12:00,27.7,8.6,29.85,WSW,254,2.9,4.3,44,0.00,,FEW060,0.00,VWS V14.01,2013-02-04 20:12:00,
2013-02-04 15:17:00,28.2,9.6,29.85,WNW,301,5.7,10.0,45,0.00,,FEW060,0.00,VWS V14.01,2013-02-04 20:17:00,
2013-02-04 15:22:00,28.2,8.1,29.84,NW,306,0.0,7.1,42,0.00,,FEW060,0.00,VWS V14.01,2013-02-04 20:22:00,
2013-02-04 15:30:00,28.1,8.5,29.84,SW,214,1.4,4.3,43,0.00,,FEW060,0.00,VWS V14.01,2013-02-04 20:30:00,
2013-02-04 15:35:00,28.2,8.6,29.84,WNW,290,0.0,2.9,43,0.00,,FEW060,0.00,VWS V14.01,2013-02-04 20:35:00,
2013-02-04 15:54:00,28.4,7.7,29.84,SW,236,10.0,11.4,41,0.00,,FEW060,0.00,VWS V14.01,2013-02-04 20:54:00,
2013-02-04 15:59:00,28.2,8.1,29.84,West,264,4.3,11.4,42,0.00,,FEW060,0.00,VWS V14.01,2013-02-04 20:59:00,
2013-02-04 16:04:00,28.4,8.2,29.84,WSW,253,2.9,2.9,42,0.00,,SCT250,0.00,VWS V14.01,2013-02-04 21:04:00,
2013-02-04 16:09:00,28.2,7.5,29.85,NNE,14,8.6,11.4,41,0.00,,SCT250,0.00,VWS V14.01,2013-02-04 21:09:00,
2013-02-04 16:14:00,27.9,6.7,29.84,NNW,336,8.6,8.6,40,0.00,,SCT250,0.00,VWS V14.01,2013-02-04 21:14:00,
2013-02-04 16:19:00,27.8,7.7,29.84,WNW,297,0.0,11.4,42,0.00,,SCT250,0.00,VWS V14.01,2013-02-04 21:19:00,
2013-02-04 16:24:00,27.7,7.1,29.84,NNW,329,7.1,20.0,41,0.00,,SCT250,0.00,VWS V14.01,2013-02-04 21:24:00,
2013-02-04 16:29:00,27.7,7.6,29.84,West,274,1.4,7.1,42,0.00,,SCT250,0.00,VWS V14.01,2013-02-04 21:29:00,
2013-02-04 16:34:00,27.5,6.9,29.85,West,280,1.4,10.0,41,0.00,,SCT250,0.00,VWS V14.01,2013-02-04 21:34:00,
2013-02-04 16:39:00,27.2,6.6,29.85,West,279,0.0,5.7,41,0.00,,SCT250,0.00,VWS V14.01,2013-02-04 21:39:00,
2013-02-04 16:44:00,27.2,6.6,29.85,NW,307,1.4,8.6,41,0.00,,SCT250,0.00,VWS V14.01,2013-02-04 21:44:00,
2013-02-04 16:49:00,26.8,6.8,29.85,SW,224,12.9,12.9,42,0.00,,SCT250,0.00,VWS V14.01,2013-02-04 21:49:00,
2013-02-04 16:54:00,26.7,6.7,29.85,WSW,239,2.9,5.7,42,0.00,,SCT250,0.00,VWS V14.01,2013-02-04 21:54:00,
2013-02-04 16:59:00,26.5,6.5,29.86,WSW,237,0.0,17.2,42,0.00,,SCT250,0.00,VWS V14.01,2013-02-04 21:59:00,
2013-02-04 17:04:00,26.5,6.5,29.86,WSW,252,7.1,10.0,42,0.00,,SCT250,0.00,VWS V14.01,2013-02-04 22:04:00,
2013-02-04 17:09:00,26.5,7.0,29.86,SSW,201,0.0,2.9,43,0.00,,SCT250,0.00,VWS V14.01,2013-02-04 22:09:00,
2013-02-04 17:14:00,26.3,6.3,29.86,WNW,293,4.3,4.3,42,0.00,,SCT250,0.00,VWS V14.01,2013-02-04 22:14:00,
2013-02-04 17:19:00,26.2,6.8,29.87,WSW,251,5.7,10.0,43,0.00,,SCT250,0.00,VWS V14.01,2013-02-04 22:19:00,
2013-02-04 17:24:00,26.2,6.8,29.87,NW,305,1.4,8.6,43,0.00,,SCT250,0.00,VWS V14.01,2013-02-04 22:24:00,
2013-02-04 17:29:00,26.0,6.6,29.88,West,266,5.7,10.0,43,0.00,,SCT250,0.00,VWS V14.01,2013-02-04 22:29:00,
2013-02-04 17:34:00,25.9,6.0,29.87,SW,225,0.0,11.4,42,0.00,,SCT250,0.00,VWS V14.01,2013-02-04 22:34:00,
2013-02-04 17:39:00,25.8,6.4,29.88,West,272,2.9,7.1,43,0.00,,SCT250,0.00,VWS V14.01,2013-02-04 22:39:00,
2013-02-04 17:44:00,25.8,6.4,29.88,SW,232,0.0,0.0,43,0.00,,SCT250,0.00,VWS V14.01,2013-02-04 22:44:00,
2013-02-04 17:49:00,25.6,6.7,29.88,West,264,0.0,5.7,44,0.00,,SCT250,0.00,VWS V14.01,2013-02-04 22:49:00,
2013-02-04 17:54:00,25.5,6.6,29.89,North,349,0.0,1.4,44,0.00,,SCT250,0.00,VWS V14.01,2013-02-04 22:54:00,
2013-02-04 17:59:00,25.3,6.4,29.89,SE,142,0.0,4.3,44,0.00,,SCT250,0.00,VWS V14.01,2013-02-04 22:59:00,
2013-02-04 18:04:00,25.2,6.8,29.89,WNW,293,4.3,4.3,45,0.00,,SCT250,0.00,VWS V14.01,2013-02-04 23:04:00,
2013-02-04 18:09:00,25.0,6.7,29.89,NW,307,0.0,7.1,45,0.00,,SCT250,0.00,VWS V14.01,2013-02-04 23:09:00,
2013-02-04 18:14:00,25.0,6.7,29.90,WSW,254,0.0,5.7,45,0.00,,SCT250,0.00,VWS V14.01,2013-02-04 23:14:00,
2013-02-04 18:19:00,25.1,6.8,29.90,WSW,254,0.0,0.0,45,0.00,,SCT250,0.00,VWS V14.01,2013-02-04 23:19:00,
2013-02-04 18:24:00,24.9,6.6,29.90,SW,228,0.0,5.7,45,0.00,,SCT250,0.00,VWS V14.01,2013-02-04 23:24:00,
2013-02-04 18:29:00,24.9,6.6,29.90,WNW,282,2.9,11.4,45,0.00,,SCT250,0.00,VWS V14.01,2013-02-04 23:29:00,
2013-02-04 18:34:00,24.8,6.5,29.91,NW,306,0.0,0.0,45,0.00,,SCT250,0.00,VWS V14.01,2013-02-04 23:34:00,
2013-02-04 18:39:00,24.7,6.4,29.91,WSW,248,0.0,2.9,45,0.00,,SCT250,0.00,VWS V14.01,2013-02-04 23:39:00,
2013-02-04 18:44:00,24.9,6.6,29.90,SW,236,0.0,14.3,45,0.00,,SCT250,0.00,VWS V14.01,2013-02-04 23:44:00,
2013-02-04 18:49:00,24.9,6.6,29.90,WNW,297,0.0,10.0,45,0.00,,SCT250,0.00,VWS V14.01,2013-02-04 23:49:00,
2013-02-04 18:54:00,24.8,6.5,29.91,WNW,302,7.1,17.2,45,0.00,,SCT250,0.00,VWS V14.01,2013-02-04 23:54:00,
2013-02-04 18:59:00,24.9,6.1,29.91,WNW,288,0.0,5.7,44,0.00,,SCT250,0.00,VWS V14.01,2013-02-04 23:59:00,
2013-02-04 19:04:00,24.8,6.0,29.92,West,273,5.7,7.1,44,0.00,,SCT200,0.00,VWS V14.01,2013-02-05 00:04:00,
2013-02-04 19:09:00,24.6,6.3,29.91,WNW,303,2.9,8.6,45,0.00,,SCT200,0.00,VWS V14.01,2013-02-05 00:09:00,
2013-02-04 19:14:00,24.5,6.2,29.91,West,261,0.0,5.7,45,0.00,,SCT200,0.00,VWS V14.01,2013-02-05 00:14:00,
2013-02-04 19:19:00,24.5,6.7,29.91,WNW,295,1.4,7.1,46,0.00,,SCT200,0.00,VWS V14.01,2013-02-05 00:19:00,
2013-02-04 19:24:00,24.3,6.5,29.91,West,279,5.7,5.7,46,0.00,,SCT200,0.00,VWS V14.01,2013-02-05 00:24:00,
2013-02-04 19:29:00,24.5,6.7,29.92,West,265,2.9,8.6,46,0.00,,SCT200,0.00,VWS V14.01,2013-02-05 00:29:00,
2013-02-04 19:34:00,24.5,6.7,29.91,NW,308,4.3,17.2,46,0.00,,SCT200,0.00,VWS V14.01,2013-02-05 00:34:00,
2013-02-04 19:38:00,24.3,7.0,29.92,NW,304,1.4,2.9,47,0.00,,SCT200,0.00,VWS V14.01,2013-02-05 00:38:00,
2013-02-04 19:43:00,24.2,5.9,29.92,WNW,285,8.6,10.0,45,0.00,,SCT200,0.00,VWS V14.01,2013-02-05 00:43:00,
2013-02-04 19:48:00,24.3,6.0,29.92,WNW,296,2.9,2.9,45,0.00,,SCT200,0.00,VWS V14.01,2013-02-05 00:48:00,
2013-02-04 19:53:00,24.2,5.9,29.92,WNW,293,2.9,7.1,45,0.00,,SCT200,0.00,VWS V14.01,2013-02-05 00:53:00,
2013-02-04 19:58:00,24.2,5.9,29.92,WSW,241,0.0,8.6,45,0.00,,SCT200,0.00,VWS V14.01,2013-02-05 00:58:00,
2013-02-04 20:03:00,24.2,6.4,29.93,WSW,257,1.4,4.3,46,0.00,,SCT130,0.00,VWS V14.01,2013-02-05 01:03:00,
2013-02-04 20:08:00,24.2,6.9,29.92,SSW,209,0.0,5.7,47,0.00,,SCT130,0.00,VWS V14.01,2013-02-05 01:08:00,
2013-02-04 20:13:00,24.2,6.4,29.93,West,259,4.3,4.3,46,0.00,,SCT130,0.00,VWS V14.01,2013-02-05 01:13:00,
2013-02-04 20:18:00,24.2,6.4,29.93,WSW,239,0.0,5.7,46,0.00,,SCT130,0.00,VWS V14.01,2013-02-05 01:18:00,
2013-02-04 20:23:00,24.0,6.7,29.93,NW,318,0.0,5.7,47,0.00,,SCT130,0.00,VWS V14.01,2013-02-05 01:23:00,
2013-02-04 20:28:00,24.0,6.7,29.93,West,274,0.0,10.0,47,0.00,,SCT130,0.00,VWS V14.01,2013-02-05 01:28:00,
2013-02-04 20:33:00,24.0,6.7,29.93,West,276,8.6,8.6,47,0.00,,SCT130,0.00,VWS V14.01,2013-02-05 01:33:00,
2013-02-04 20:38:00,24.0,6.7,29.93,West,276,4.3,8.6,47,0.00,,SCT130,0.00,VWS V14.01,2013-02-05 01:38:00,
2013-02-04 20:43:00,24.2,6.4,29.94,WSW,258,10.0,10.0,46,0.00,,SCT130,0.00,VWS V14.01,2013-02-05 01:43:00,
2013-02-04 20:48:00,24.2,6.4,29.93,West,273,2.9,11.4,46,0.00,,SCT130,0.00,VWS V14.01,2013-02-05 01:48:00,
2013-02-04 20:53:00,24.2,6.9,29.94,WNW,300,0.0,4.3,47,0.00,,SCT130,0.00,VWS V14.01,2013-02-05 01:53:00,
2013-02-04 20:58:00,24.2,6.9,29.93,WNW,300,0.0,1.4,47,0.00,,SCT130,0.00,VWS V14.01,2013-02-05 01:58:00,
2013-02-04 21:03:00,24.1,6.8,29.94,WNW,298,0.0,4.3,47,0.00,,SCT130,0.00,VWS V14.01,2013-02-05 02:03:00,
2013-02-04 21:08:00,24.2,6.9,29.93,WNW,293,0.0,1.4,47,0.00,,SCT130,0.00,VWS V14.01,2013-02-05 02:08:00,
2013-02-04 21:13:00,24.0,6.7,29.94,West,277,0.0,8.6,47,0.00,,SCT130,0.00,VWS V14.01,2013-02-05 02:13:00,
2013-02-04 21:18:00,24.0,6.7,29.94,SW,233,0.0,4.3,47,0.00,,SCT130,0.00,VWS V14.01,2013-02-05 02:18:00,
2013-02-04 21:23:00,24.0,6.7,29.94,WNW,293,0.0,0.0,47,0.00,,SCT130,0.00,VWS V14.01,2013-02-05 02:23:00,
2013-02-04 21:28:00,23.9,6.6,29.94,WNW,282,0.0,1.4,47,0.00,,SCT130,0.00,VWS V14.01,2013-02-05 02:28:00,
2013-02-04 21:33:00,23.7,6.4,29.94,SW,226,0.0,2.9,47,0.00,,SCT130,0.00,VWS V14.01,2013-02-05 02:33:00,
2013-02-04 21:38:00,23.7,6.4,29.93,West,274,0.0,1.4,47,0.00,,SCT130,0.00,VWS V14.01,2013-02-05 02:38:00,
2013-02-04 21:43:00,23.7,6.9,29.94,WSW,246,0.0,2.9,48,0.00,,SCT130,0.00,VWS V14.01,2013-02-05 02:43:00,
2013-02-04 21:48:00,23.7,6.9,29.94,WSW,240,2.9,2.9,48,0.00,,SCT130,0.00,VWS V14.01,2013-02-05 02:48:00,
2013-02-04 21:53:00,23.6,6.8,29.94,WSW,240,0.0,0.0,48,0.00,,SCT130,0.00,VWS V14.01,2013-02-05 02:53:00,
2013-02-04 21:58:00,23.4,6.6,29.94,West,272,0.0,1.4,48,0.00,,SCT130,0.00,VWS V14.01,2013-02-05 02:58:00,
2013-02-04 22:03:00,23.3,6.5,29.94,WSW,246,0.0,0.0,48,0.00,,SCT130,0.00,VWS V14.01,2013-02-05 03:03:00,
2013-02-04 22:08:00,23.3,7.0,29.94,WNW,292,2.9,5.7,49,0.00,,SCT130,0.00,VWS V14.01,2013-02-05 03:08:00,
2013-02-04 22:13:00,23.1,6.8,29.94,NW,304,1.4,1.4,49,0.00,,SCT130,0.00,VWS V14.01,2013-02-05 03:13:00,
2013-02-04 22:18:00,23.1,6.8,29.94,West,267,0.0,0.0,49,0.00,,SCT130,0.00,VWS V14.01,2013-02-05 03:18:00,
2013-02-04 22:23:00,23.0,6.7,29.94,West,267,0.0,2.9,49,0.00,,SCT130,0.00,VWS V14.01,2013-02-05 03:23:00,
2013-02-04 22:28:00,23.0,7.1,29.94,West,281,5.7,5.7,50,0.00,,SCT130,0.00,VWS V14.01,2013-02-05 03:28:00,
2013-02-04 22:33:00,22.9,7.1,29.94,NW,304,0.0,0.0,50,0.00,,SCT130,0.00,VWS V14.01,2013-02-05 03:33:00,
2013-02-04 22:38:00,22.8,7.0,29.94,NW,304,0.0,0.0,50,0.00,,SCT130,0.00,VWS V14.01,2013-02-05 03:38:00,
2013-02-04 22:43:00,22.7,7.3,29.94,West,281,0.0,0.0,51,0.00,,SCT130,0.00,VWS V14.01,2013-02-05 03:43:00,
2013-02-04 22:48:00,22.7,7.3,29.94,West,281,0.0,0.0,51,0.00,,SCT130,0.00,VWS V14.01,2013-02-05 03:48:00,
2013-02-04 22:53:00,22.7,7.3,29.94,WNW,287,0.0,1.4,51,0.00,,SCT130,0.00,VWS V14.01,2013-02-05 03:53:00,
2013-02-04 22:58:00,22.7,7.3,29.94,West,280,0.0,0.0,51,0.00,,SCT130,0.00,VWS V14.01,2013-02-05 03:58:00,
2013-02-04 23:03:00,22.6,7.2,29.95,West,280,0.0,0.0,51,0.00,,SCT120,0.00,VWS V14.01,2013-02-05 04:03:00,
2013-02-04 23:08:00,22.6,8.1,29.95,West,270,0.0,0.0,53,0.00,,SCT120,0.00,VWS V14.01,2013-02-05 04:08:00,
2013-02-04 23:13:00,22.4,7.9,29.95,West,270,0.0,1.4,53,0.00,,SCT120,0.00,VWS V14.01,2013-02-05 04:13:00,
2013-02-04 23:18:00,22.3,7.8,29.95,West,270,0.0,0.0,53,0.00,,SCT120,0.00,VWS V14.01,2013-02-05 04:18:00,
2013-02-04 23:23:00,22.1,7.6,29.95,West,270,0.0,0.0,53,0.00,,SCT120,0.00,VWS V14.01,2013-02-05 04:23:00,
2013-02-04 23:28:00,21.9,7.8,29.95,West,270,0.0,0.0,54,0.00,,SCT120,0.00,VWS V14.01,2013-02-05 04:28:00,
2013-02-04 23:33:00,21.8,7.3,29.95,West,270,0.0,0.0,53,0.00,,SCT120,0.00,VWS V14.01,2013-02-05 04:33:00,
2013-02-04 23:38:00,21.8,7.3,29.95,West,267,0.0,0.0,53,0.00,,SCT120,0.00,VWS V14.01,2013-02-05 04:38:00,
2013-02-04 23:43:00,21.6,7.5,29.95,West,267,0.0,0.0,54,0.00,,SCT120,0.00,VWS V14.01,2013-02-05 04:43:00,
2013-02-04 23:48:00,21.7,7.6,29.96,West,267,0.0,1.4,54,0.00,,SCT120,0.00,VWS V14.01,2013-02-05 04:48:00,
2013-02-04 23:53:00,21.7,7.6,29.95,West,267,0.0,0.0,54,0.00,,SCT120,0.00,VWS V14.01,2013-02-05 04:53:00,
2013-02-04 23:58:00,21.6,7.5,29.95,West,267,0.0,2.9,54,0.00,,SCT120,0.00,VWS V14.01,2013-02-05 04:58:00,